Погода в Ивринди

Турция     39°34′48″N   27°29′10″E
темп.,
°C
ветер,
м/с
пор.,
м/с
влажн.,
%
обл.,
%
осадки,
мм/ч
давл.,
гПа
погр.,
м
6 мая, чт
чт600:00+14юз22655 0.0 101112
03:00+15ююз2255100 0.0 101124
06:00+15зюз0165100 0.2 101110
09:00+13св2381100 0.7 101394
12:00+18всв21645 0.0 1014511
15:00+22ссв335376 0.2 10141636
18:00+22ссв335148 0.0 10131473
21:00+15всв127813 0.0 101512
7 мая, пт
пт700:00+14ссв1178100 0.0 101712
03:00+13ссв118266 0.0 101610
06:00+12ссв11861 0.0 101511
09:00+18вюв116497 0.0 1015253
12:00+24ююз2335100 0.0 10151310
15:00+26юз133088 0.0 10131731
18:00+26юз233895 0.0 1011810
21:00+18юз115480 0.0 101211
8 мая, сб
сб800:00+17ююз235091 0.0 101222
03:00+15юз124998 0.0 101111
06:00+15юв1150100 0.0 101011
09:00+19ююз2451100 0.0 1012131
12:00+22всв224373 0.0 1011351
15:00+24ссв6641100 0.0 1012863
18:00+15ссв4982100 0.6 1013482
21:00+13ссв51089100 0.6 1016684
9 мая, вс
вс900:00+11ссв71394100 0.1 1019828
03:00+10ссв61392100 0.1 1020725
06:00+10ссв81485100 0.0 1021757
09:00+11ссв91379100 0.0 1023809
12:00+15ссв10135636 0.0 10221155
15:00+16ссв1113475 0.0 10211224
18:00+14ссв1014585 0.0 10211007
21:00+9ссв714675 0.0 1022613
10 мая, пн
пн1000:00+7с37794 0.0 1023197
03:00+5с36925 0.0 1022133
06:00+4с34935 0.0 102180
09:00+11ссв610653 0.0 1020604
12:00+16ссв910500 0.0 1019904
15:00+17ссв911460 0.0 1018970
18:00+14ссв912520 0.0 1018756
21:00+9с510620 0.0 1019318